KB9MXL Weather Reports


time (UTC)temp
F
wind
direction
speed
knots
gust
knots
rain 1hr
in
rain 24hr
in
rain mn
in
humidity
%
barometer
mb
20260906022524 73 136 0.0 0.0 0.00 0.00 0.00 89 1014.2
20260906022024 74 136 0.0 0.0 0.00 0.00 0.00 89 1014.1
20260906021022 74 136 0.0 0.0 0.00 0.00 0.00 88 1014.2
20260906020521 74 136 0.0 0.9 0.00 0.00 0.00 88 1014.1
20260906020030 74 136 0.0 0.9 0.00 0.00 0.00 88 1014.1
20260906015524 74 110 0.0 0.0 0.00 0.00 0.00 87 1014.2
20260906015019 75 110 0.0 0.0 0.00 0.00 0.00 87 1014.1
20260906014518 75 110 0.0 0.0 0.00 0.00 0.00 87 1014.0
20260906014019 75 110 0.0 0.0 0.00 0.00 0.00 86 1013.8
20260906013515 76 110 0.0 0.0 0.00 0.00 0.00 86 1013.6
20260906013015 76 99 0.0 0.0 0.00 0.00 0.00 85 1013.7
20260906012514 76 99 0.0 0.0 0.00 0.00 0.00 85 1013.6
20260906012013 76 99 0.0 0.0 0.00 0.00 0.00 85 1013.5
20260906011017 77 130 0.0 0.0 0.00 0.00 0.00 84 1013.5
20260906010513 77 130 0.0 0.9 0.00 0.00 0.00 84 1013.5
20260906010013 78 130 0.0 0.9 0.00 0.00 0.00 83 1013.4
20260906005512 78 61 0.0 0.9 0.00 0.00 0.00 83 1013.3
20260906005013 78 13 0.0 1.7 0.00 0.00 0.00 83 1013.3
20260906004513 79 12 0.0 2.6 0.00 0.00 0.00 83 1013.2
20260906004012 79 71 0.0 2.6 0.00 0.00 0.00 82 1013.3
20260906003512 80 79 0.0 1.7 0.00 0.00 0.00 82 1013.2
20260906003021 80 41 0.0 0.0 0.00 0.00 0.00 81 1013.2
20260906002511 80 41 0.0 0.0 0.00 0.00 0.00 80 1013.1
20260906002013 81 41 0.0 0.0 0.00 0.00 0.00 80 1013.1
20260906001012 82 148 0.0 2.6 0.00 0.00 0.00 78 1013.1
20260906000512 82 57 0.0 1.7 0.00 0.00 0.00 78 1013.0
20260906000013 82 316 0.0 0.9 0.00 0.00 0.00 77 1013.0
20260905235512 83 311 0.0 0.9 0.00 0.00 0.00 77 1013.0
20260905235014 83 71 0.0 0.9 0.00 0.00 0.00 76 1012.9
20260905234513 83 75 0.0 0.9 0.00 0.00 0.00 75 1012.9
20260905234017 84 89 0.0 0.9 0.00 0.00 0.00 75 1013.0
20260905233512 84 109 0.0 0.9 0.00 0.00 0.00 75 1012.8
20260905233013 85 352 0.0 0.9 0.00 0.00 0.00 75 1012.7
20260905232513 85 53 0.0 0.9 0.00 0.00 0.00 74 1012.6
20260905232012 85 72 0.0 0.0 0.00 0.00 0.00 74 1012.6
20260905231010 86 93 0.0 0.9 0.00 0.00 0.00 74 1012.4
20260905230511 86 91 0.0 0.9 0.00 0.00 0.00 74 1012.5
20260905230012 86 60 0.0 0.9 0.00 0.00 0.00 73 1012.4
20260905225511 87 43 0.0 1.7 0.00 0.00 0.00 73 1012.4
20260905225010 87 77 0.0 1.7 0.00 0.00 0.00 72 1012.5
20260905224511 88 19 0.0 0.0 0.00 0.00 0.00 72 1012.5
20260905224010 88 324 0.0 0.9 0.00 0.00 0.00 71 1012.6
20260905223510 89 318 0.0 0.9 0.00 0.00 0.00 71 1012.5
20260905223029 89 327 0.0 0.9 0.00 0.00 0.00 70 1012.5
20260905222510 90 327 0.0 0.9 0.00 0.00 0.00 69 1012.4
20260905222013 91 4 0.0 1.7 0.00 0.00 0.00 67 1012.5
20260905221012 92 25 0.0 0.9 0.00 0.00 0.00 66 1012.3
20260905220510 93 332 0.0 0.9 0.00 0.00 0.00 66 1012.2
20260905220009 93 330 0.0 0.0 0.00 0.00 0.00 66 1012.2
20260905215513 93 340 0.0 0.0 0.00 0.00 0.00 66 1012.2
20260905215009 94 340 0.0 0.0 0.00 0.00 0.00 64 1012.1
20260905214510 95 340 0.0 0.0 0.00 0.00 0.00 63 1012.1
20260905214009 95 340 0.0 0.0 0.00 0.00 0.00 62 1012.1
20260905213508 95 349 0.0 0.0 0.00 0.00 0.00 63 1012.1
20260905213009 95 333 0.0 0.0 0.00 0.00 0.00 64 1012.1
20260905212509 94 333 0.0 0.9 0.00 0.00 0.00 63 1012.1
20260905212010 94 333 0.0 0.9 0.00 0.00 0.00 62 1012.1
20260905211008 95 345 0.0 0.0 0.00 0.00 0.00 61 1012.0
20260905210508 96 345 0.0 0.0 0.00 0.00 0.00 60 1012.1
20260905210008 96 336 0.0 0.0 0.00 0.00 0.00 61 1012.0
20260905205508 96 336 0.0 0.0 0.00 0.00 0.00 62 1012.0
20260905205008 96 336 0.0 0.0 0.00 0.00 0.00 62 1012.1
20260905204511 95 336 0.0 0.9 0.00 0.00 0.00 64 1012.1
20260905204007 94 336 0.0 0.9 0.00 0.00 0.00 64 1012.2
20260905203508 94 338 0.0 0.0 0.00 0.00 0.00 63 1012.2
20260905203008 95 337 0.0 0.9 0.00 0.00 0.00 62 1012.3
20260905202507 95 347 0.0 0.9 0.00 0.00 0.00 63 1012.4
20260905202007 95 347 0.0 0.0 0.00 0.00 0.00 60 1012.3
20260905201007 95 332 0.0 0.0 0.00 0.00 0.00 62 1012.4
20260905200509 95 338 0.0 0.9 0.00 0.00 0.00 63 1012.5
20260905200007 95 337 0.0 0.0 0.00 0.00 0.00 62 1012.4
20260905195510 94 337 0.0 0.9 0.00 0.00 0.00 66 1012.4
20260905195006 94 337 0.0 0.9 0.00 0.00 0.00 63 1012.4
20260905194506 94 335 0.0 0.9 0.00 0.00 0.00 64 1012.3
20260905194006 94 336 0.0 0.9 0.00 0.00 0.00 65 1012.3
20260905193504 94 335 0.0 0.0 0.00 0.00 0.00 65 1012.5
20260905193006 94 336 0.0 0.0 0.00 0.00 0.00 65 1012.5
20260905192505 94 336 0.0 0.0 0.00 0.00 0.00 63 1012.6
20260905192005 94 336 0.0 0.0 0.00 0.00 0.00 64 1012.6
20260905191005 95 338 0.0 0.0 0.00 0.00 0.00 62 1012.6
20260905190506 95 338 0.0 0.0 0.00 0.00 0.00 64 1012.6
20260905190005 94 338 0.0 0.0 0.00 0.00 0.00 65 1012.6
20260905185504 94 338 0.0 0.9 0.00 0.00 0.00 65 1012.6
20260905185004 94 338 0.0 0.9 0.00 0.00 0.00 64 1012.7
20260905184505 94 338 0.0 0.9 0.00 0.00 0.00 63 1012.9
20260905184004 94 338 0.0 0.9 0.00 0.00 0.00 64 1012.9
20260905183504 94 338 0.0 0.0 0.00 0.00 0.00 64 1012.9
20260905183004 95 338 0.0 0.9 0.00 0.00 0.00 62 1012.9
20260905182504 96 338 0.0 0.9 0.00 0.00 0.00 62 1012.9
20260905182004 96 338 0.0 0.9 0.00 0.00 0.00 61 1013.0
20260905181002 96 338 0.0 0.0 0.00 0.00 0.00 64 1013.0
20260905180502 96 338 0.0 1.7 0.00 0.00 0.00 60 1013.0
20260905180002 96 338 0.0 1.7 0.00 0.00 0.00 62 1013.0
20260905175502 96 326 0.0 1.7 0.00 0.00 0.00 62 1013.0
20260905175000 96 320 0.0 1.7 0.00 0.00 0.00 61 1013.0
20260905174500 96 354 0.0 0.9 0.00 0.00 0.00 60 1013.1
20260905174101 96 84 0.0 4.3 0.00 0.00 0.00 62 1013.1
20260905173601 96 86 0.0 4.3 0.00 0.00 0.00 61 1013.2
20260905173059 96 96 0.9 3.5 0.00 0.00 0.00 61 1013.2
20260905172600 96 28 0.0 0.0 0.00 0.00 0.00 62 1013.2
20260905172058 96 28 0.0 2.6 0.00 0.00 0.00 64 1013.2
20260905171657 96 105 0.0 1.7 0.00 0.00 0.00 64 1013.2
20260905171056 95 79 0.0 0.9 0.00 0.00 0.00 62 1013.3
20260905170556 95 27 0.0 0.9 0.00 0.00 0.00 61 1013.3
20260905170059 95 27 0.0 0.9 0.00 0.00 0.00 62 1013.4
20260905165554 95 66 0.0 0.9 0.00 0.00 0.00 64 1013.4
20260905165056 95 93 0.0 0.9 0.00 0.00 0.00 65 1013.4
20260905164552 95 63 0.0 0.9 0.00 0.00 0.00 64 1013.5
20260905164051 94 32 0.0 0.9 0.00 0.00 0.00 64 1013.5
20260905163550 94 346 0.0 0.9 0.00 0.00 0.00 66 1013.5
20260905163048 93 346 0.0 0.9 0.00 0.00 0.00 66 1013.5
20260905162546 93 346 0.0 0.9 0.00 0.00 0.00 65 1013.5
20260905162044 93 25 0.0 0.9 0.00 0.00 0.00 66 1013.5
20260905161644 93 60 0.0 0.9 0.00 0.00 0.00 68 1013.6
20260905161044 92 62 0.0 0.9 0.00 0.00 0.00 68 1013.6
20260905160544 92 63 0.0 0.9 0.00 0.00 0.00 68 1013.6
20260905160047 91 331 0.0 0.9 0.00 0.00 0.00 69 1013.6
20260905155539 91 331 0.0 0.9 0.00 0.00 0.00 71 1013.5
20260905155039 91 330 0.0 1.7 0.00 0.00 0.00 70 1013.5
20260905154551 91 62 0.0 1.7 0.00 0.00 0.00 69 1013.6
20260905154038 91 320 0.0 0.0 0.00 0.00 0.00 69 1013.5
20260905153538 91 320 0.0 0.0 0.00 0.00 0.00 70 1013.5
20260905153036 91 319 0.0 0.0 0.00 0.00 0.00 69 1013.4
20260905152535 90 319 0.0 0.0 0.00 0.00 0.00 71 1013.3
20260905152033 90 319 0.0 0.0 0.00 0.00 0.00 71 1013.4
20260905151632 89 319 0.0 0.0 0.00 0.00 0.00 72 1013.3
20260905151032 88 319 0.0 0.0 0.00 0.00 0.00 72 1013.3
20260905150530 88 319 0.0 0.0 0.00 0.00 0.00 72 1013.2
20260905150029 87 319 0.0 0.9 0.00 0.00 0.00 74 1013.2
20260905145528 87 319 0.0 1.7 0.00 0.00 0.00 73 1013.2
20260905145028 87 319 0.0 2.6 0.00 0.00 0.00 73 1013.2
20260905144538 87 319 0.0 2.6 0.00 0.00 0.00 71 1013.2
20260905144026 87 316 0.0 1.7 0.00 0.00 0.00 73 1013.1
20260905143525 87 316 0.0 1.7 0.00 0.00 0.00 72 1013.0
20260905143025 87 271 0.0 3.5 0.00 0.00 0.00 74 1013.0
20260905142525 86 311 0.0 3.5 0.00 0.00 0.00 71 1013.0
20260905142028 86 263 0.0 0.9 0.00 0.00 0.00 73 1012.9
20260905141624 86 262 0.0 0.9 0.00 0.00 0.00 73 1013.0
20260905141024 86 232 0.0 1.7 0.00 0.00 0.00 73 1012.9
20260905140524 86 323 0.0 2.6 0.00 0.00 0.00 73 1012.9
20260905140030 86 322 0.0 2.6 0.00 0.00 0.00 73 1012.9
20260905135523 86 276 0.0 0.0 0.00 0.00 0.00 75 1013.0
20260905135021 85 276 0.0 0.9 0.00 0.00 0.00 75 1012.8
20260905134521 85 260 0.0 0.9 0.00 0.00 0.00 75 1012.9
20260905134021 85 260 0.0 0.0 0.00 0.00 0.00 76 1012.9
20260905133524 85 260 0.0 0.0 0.00 0.00 0.00 76 1012.7
20260905133020 85 260 0.0 0.0 0.00 0.00 0.00 76 1012.7
20260905132520 85 260 0.0 0.0 0.00 0.00 0.00 77 1012.8
20260905132023 85 260 0.0 0.0 0.00 0.00 0.00 76 1012.8
20260905131621 85 260 0.0 0.0 0.00 0.00 0.00 77 1012.9
20260905131019 85 260 0.0 0.0 0.00 0.00 0.00 78 1012.9
20260905130520 85 260 0.0 0.0 0.00 0.00 0.00 79 1012.9
20260905130018 84 260 0.0 0.0 0.00 0.00 0.00 81 1012.9
20260905125515 83 260 0.0 0.0 0.00 0.00 0.00 82 1012.7
20260905125013 82 260 0.0 0.0 0.00 0.00 0.00 83 1012.5
20260905124512 81 263 0.0 0.0 0.00 0.00 0.00 84 1012.5
20260905124010 80 263 0.0 0.0 0.00 0.00 0.00 85 1012.5
20260905123509 79 263 0.0 0.0 0.00 0.00 0.00 85 1012.6
20260905123009 79 263 0.0 0.0 0.00 0.00 0.00 85 1012.5
20260905122516 79 263 0.0 0.0 0.00 0.00 0.00 85 1012.4
20260905122009 79 263 0.0 0.0 0.00 0.00 0.00 86 1012.4
20260905121609 78 263 0.0 0.0 0.00 0.00 0.00 87 1012.2
20260905121008 78 263 0.0 0.0 0.00 0.00 0.00 87 1012.3
20260905120509 78 263 0.0 0.0 0.00 0.00 0.00 87 1012.2
20260905120008 78 263 0.0 0.0 0.00 0.00 0.00 86 1012.2
20260905115508 78 263 0.0 0.0 0.00 0.00 0.00 86 1012.1
20260905115009 78 231 0.0 0.9 0.00 0.00 0.00 86 1012.1
20260905114509 78 231 0.0 0.9 0.00 0.00 0.00 86 1012.0
20260905114007 78 231 0.0 0.9 0.00 0.00 0.00 86 1012.0
20260905113512 78 231 0.0 1.7 0.00 0.00 0.00 86 1011.9
20260905113009 78 247 0.0 1.7 0.00 0.00 0.00 86 1011.9
20260905112507 77 240 0.0 0.0 0.00 0.00 0.00 86 1011.9
20260905112007 77 240 0.0 0.0 0.00 0.00 0.00 86 1011.9
20260905111615 78 240 0.0 0.0 0.00 0.00 0.00 85 1011.9
20260905111008 78 240 0.0 0.0 0.00 0.00 0.00 85 1011.9
20260905110511 78 240 0.0 0.0 0.00 0.00 0.00 85 1011.9
20260905110007 78 240 0.0 0.0 0.00 0.00 0.00 85 1011.9
20260905105507 77 240 0.0 0.9 0.00 0.00 0.00 85 1011.8
20260905105007 77 240 0.0 0.9 0.00 0.00 0.00 86 1011.9
20260905104506 77 240 0.0 0.0 0.00 0.00 0.00 85 1011.8
20260905104006 77 245 0.0 0.0 0.00 0.00 0.00 85 1011.8
20260905103505 77 245 0.0 0.0 0.00 0.00 0.00 84 1011.8
20260905103005 77 245 0.0 0.0 0.00 0.00 0.00 84 1011.9
20260905102505 78 245 0.0 0.0 0.00 0.00 0.00 83 1011.9
20260905102004 78 245 0.0 0.0 0.00 0.00 0.00 83 1011.9
20260905101605 79 245 0.0 0.0 0.00 0.00 0.00 83 1012.0
20260905101003 79 245 0.0 0.0 0.00 0.00 0.00 82 1012.0
20260905100504 79 245 0.0 0.0 0.00 0.00 0.00 82 1012.0
20260905100004 79 245 0.0 0.9 0.00 0.00 0.00 83 1012.0
20260905095503 79 245 0.0 0.9 0.00 0.00 0.00 83 1011.9
20260905095004 79 261 0.0 0.0 0.00 0.00 0.00 83 1011.9
20260905094503 79 239 0.0 0.0 0.00 0.00 0.00 83 1011.9
20260905094003 79 236 0.0 0.0 0.00 0.00 0.00 83 1012.0
20260905093503 79 237 0.0 0.0 0.00 0.00 0.00 82 1012.1
20260905093002 79 236 0.0 0.0 0.00 0.00 0.00 82 1012.1
20260905092501 79 236 0.0 0.9 0.00 0.00 0.00 82 1012.1
20260905092004 79 236 0.0 0.9 0.00 0.00 0.00 82 1012.2
20260905091609 79 236 0.0 0.9 0.00 0.00 0.00 82 1012.1
20260905091003 79 233 0.0 0.9 0.00 0.00 0.00 82 1012.1
20260905090502 79 226 0.0 0.0 0.00 0.00 0.00 82 1012.1
20260905090003 79 226 0.0 0.9 0.00 0.00 0.00 82 1012.1
20260905085501 79 226 0.0 0.9 0.00 0.00 0.00 82 1012.1
20260905085003 79 214 0.0 0.9 0.00 0.00 0.00 82 1012.0
20260905084501 79 214 0.0 0.9 0.00 0.00 0.00 82 1012.0
20260905084001 79 262 0.0 0.9 0.00 0.00 0.00 82 1012.0
20260905083600 79 214 0.0 0.9 0.00 0.00 0.00 83 1012.0
20260905083101 79 148 0.0 0.0 0.00 0.00 0.00 83 1012.1
20260905082600 79 148 0.0 0.0 0.00 0.00 0.00 83 1012.1
20260905082059 79 148 0.0 0.0 0.00 0.00 0.00 82 1012.2
20260905081611 79 148 0.0 0.0 0.00 0.00 0.00 83 1012.2
20260905081058 79 148 0.0 0.0 0.00 0.00 0.00 83 1012.2
20260905080558 79 148 0.0 0.0 0.00 0.00 0.00 83 1012.2
20260905080101 79 148 0.0 0.0 0.00 0.00 0.00 83 1012.2
20260905075602 79 148 0.0 0.0 0.00 0.00 0.00 83 1012.2
20260905075057 79 148 0.0 0.0 0.00 0.00 0.00 84 1012.3
20260905074556 79 148 0.0 0.0 0.00 0.00 0.00 84 1012.3
20260905074055 78 148 0.0 0.0 0.00 0.00 0.00 85 1012.3
20260905073554 78 148 0.0 0.0 0.00 0.00 0.00 85 1012.3
20260905073053 78 146 0.0 0.0 0.00 0.00 0.00 86 1012.3
20260905072552 77 146 0.0 0.9 0.00 0.00 0.00 87 1012.3
20260905072052 77 144 0.0 0.9 0.00 0.00 0.00 87 1012.4
20260905071559 77 104 0.0 0.0 0.00 0.00 0.00 88 1012.4
20260905071055 77 104 0.0 0.0 0.00 0.00 0.00 88 1012.4
20260905070555 77 104 0.0 0.0 0.00 0.00 0.00 88 1012.4
20260905070052 77 104 0.0 0.0 0.00 0.00 0.00 88 1012.5
20260905065555 77 104 0.0 0.0 0.00 0.00 0.00 89 1012.5
20260905065051 77 104 0.0 0.0 0.00 0.00 0.00 89 1012.5
20260905064556 77 104 0.0 0.0 0.00 0.00 0.00 89 1012.5
20260905064051 77 104 0.0 0.0 0.00 0.00 0.00 89 1012.5
20260905063551 77 104 0.0 0.0 0.00 0.00 0.00 89 1012.6
20260905063051 77 104 0.0 0.0 0.00 0.00 0.00 90 1012.6
20260905062554 77 104 0.0 0.0 0.00 0.00 0.00 90 1012.5
20260905062050 77 104 0.0 0.0 0.00 0.00 0.00 90 1012.5
20260905061607 77 104 0.0 0.0 0.00 0.00 0.00 90 1012.6
20260905061050 77 104 0.0 0.0 0.00 0.00 0.00 90 1012.6
20260905060549 76 104 0.0 0.0 0.00 0.00 0.00 90 1012.6
20260905060049 76 104 0.0 0.0 0.00 0.00 0.00 90 1012.8
20260905055548 76 104 0.0 0.0 0.00 0.00 0.00 90 1012.8
20260905055049 76 104 0.0 0.0 0.00 0.00 0.00 89 1012.8
20260905054550 76 104 0.0 0.0 0.00 0.00 0.00 89 1012.8
20260905054047 77 104 0.0 0.0 0.00 0.00 0.00 89 1012.8
20260905053548 77 104 0.0 0.0 0.00 0.00 0.00 89 1012.8
20260905053050 77 104 0.0 0.0 0.00 0.00 0.00 89 1012.8
20260905052546 77 104 0.0 0.0 0.00 0.00 0.00 89 1012.8
20260905052047 77 104 0.0 0.0 0.00 0.00 0.00 89 1012.7
20260905051545 77 104 0.0 0.0 0.00 0.00 0.00 89 1012.6
20260905051042 77 104 0.0 0.0 0.00 0.00 0.00 89 1012.6
20260905050542 77 104 0.0 0.0 0.00 0.00 0.00 88 1012.7
20260905050042 77 104 0.0 0.0 0.00 0.00 0.00 88 1012.7
20260905045543 78 104 0.0 0.0 0.00 0.00 0.00 88 1012.7
20260905045042 78 104 0.0 0.0 0.00 0.00 0.00 88 1012.7
20260905044542 78 104 0.0 0.0 0.00 0.00 0.00 88 1012.7
20260905044045 78 104 0.0 0.0 0.00 0.00 0.00 88 1012.7
20260905043541 78 104 0.0 0.0 0.00 0.00 0.00 87 1012.8
20260905043106 78 104 0.0 0.0 0.00 0.00 0.00 87 1012.9
20260905042540 78 104 0.0 0.0 0.00 0.00 0.00 87 1012.8
20260905042041 78 104 0.0 0.0 0.00 0.00 0.00 86 1012.8
20260905041541 79 104 0.0 0.0 0.00 0.00 0.00 86 1012.8
20260905041041 79 104 0.0 0.0 0.00 0.00 0.00 86 1012.8
20260905040541 79 104 0.0 0.0 0.00 0.00 0.00 86 1012.7
20260905040056 79 104 0.0 0.0 0.00 0.00 0.00 86 1012.6
20260905035541 79 104 0.0 0.0 0.00 0.00 0.00 86 1012.5
20260905035041 79 104 0.0 0.0 0.00 0.00 0.00 86 1012.5
20260905034541 79 104 0.0 0.9 0.00 0.00 0.00 87 1012.4
20260905034043 79 104 0.0 0.9 0.00 0.00 0.00 87 1012.3
20260905033540 79 257 0.0 0.0 0.00 0.00 0.00 88 1012.4
20260905033042 79 259 0.0 0.0 0.00 0.00 0.00 87 1012.6
20260905032540 79 259 0.0 0.0 0.00 0.00 0.00 86 1012.7
20260905032039 79 259 0.0 0.0 0.00 0.00 0.00 86 1012.7
20260905031541 79 259 0.0 0.0 0.00 0.00 0.00 86 1012.7
20260905031040 79 259 0.0 0.0 0.00 0.00 0.00 86 1012.6
20260905030539 79 259 0.0 0.0 0.00 0.00 0.00 85 1012.6
20260905030042 80 259 0.0 0.0 0.00 0.00 0.00 85 1012.6
20260905025539 80 259 0.0 0.0 0.00 0.00 0.00 85 1012.5
20260905025040 80 259 0.0 0.0 0.00 0.00 0.00 85 1012.5
20260905024539 80 259 0.0 0.0 0.00 0.00 0.00 85 1012.4
20260905024039 80 259 0.0 0.0 0.00 0.00 0.00 86 1012.3
20260905023541 80 259 0.0 0.0 0.00 0.00 0.00 86 1012.2
20260905023043 80 259 0.0 0.0 0.00 0.00 0.00 86 1012.3